FREGAT DEB, 45831

Orbit data source: Space-Track

FREGAT DEB, 45831 is space debris in LEO originally from a launch on Mon, 18 Jul 2011 UTC launched from the Tyuratam Missile And Space Complex (TTMTR). Debris objects in space refer to the collection of defunct objects orbiting the Earth. Examples of debris include non-operational satellites, rocket bodies, and fragments generated from explosions, collisions, or faulty payload assembly.

Loading next visibility...
Identifier
45831, 2011-037BR
Orbit
LEO
Country
Flag of CISCIS
Related business
Manufacturer
Lavochkin
Mission
Spacecraft
Bus & Motor
Unknown
Mass
Unknown
Launch date (UTC)
2011-07-18 (15 years ago)
Launch vehicle
Unknown
Launch site
Tyuratam Missile And Space Complex (TTMTR)
Object type
Payload
Rocket body
Debris
Shape & HBR
Unknown shape, 0.1 m
Radar Cross Section
Medium (>0.1 m² and <1 m²)

Expand to show TLE details & history
Last TLE update: 1 week ago

TLE from 1 week ago
0 FREGAT DEB
1 45831U 11037BR  26153.07085332  .00004516  00000-0  23377-2 0  9998
2 45831  51.4365  76.7421 1633144  32.2541 336.8370 11.55813801252151
Epoch: 2026-06-02T01:42Z
TLE epoch observation values (Epoch: 2026-06-02T01:42:01.726Z)
Latitude
-0.00005°
Longitude
160.68577°
Altitude
688.29 km
Speed
8.038 km/s
True Right ascension
05h 06m 58s
True Declination
0° 00' 00"
Sunlit
Object was in daylight at epoch
Visualization orbit readout
Latitude
Unknown
Longitude
Unknown
Altitude
Unknown
Speed
Unknown
Apparent Right ascension
Unknown
Apparent Declination
Unknown
Sunlit
N/A
Visualization observer readout
Local Sidereal Time
06:11:07
Azimuth
Unknown
Elevation
Unknown
Doppler factor
Unknown
Orbital elements
Apogee altitude
3,234.993 km
Perigee altitude
535.873 km
Semi-major axis
8,263.57 km
Eccentricity
0.16331
Inclination
51.4365°
RAAN
76.7421°
Arg. of periapsis
32.2541°
True anomaly
327.8326°
Mean anomaly
336.837°
Eccentric anomaly
332.51908°
Mean motion
2.88929 °/min
Orbital period
124.6 mins
BSTAR
0.0023377
Loading maneuver chart data...
Computing Atmospheric mass density...
Loading historical data...
Loading historical data...
Loading historical data...
Loading historical data...
Loading historical data...
Loading historical data...
Loading historical data...

Documentation

Showing up to 5 results
|